Weather History for Monroe, MI

Change the Weather History Date:

Sunday, January 19, 2014

  Actual Average Record
Temperature  
Mean Temperature 19 °F -  
Max Temperature 30 °F 30 °F 57 °F (1933)
Min Temperature 10 °F 15 °F -12 °F (1940)
Degree Days  
Heating Degree Days 46    
Moisture  
Dew Point 18 °F    
Average Humidity 83    
Maximum Humidity 100    
Minimum Humidity 74    
Precipitation  
Precipitation 0.00 in - - ()
Sea Level Pressure  
Sea Level Pressure 29.67 in    
Wind  
Wind Speed 8 mph (SW)    
Max Wind Speed 31 mph    
Max Gust Speed 40 mph    
Visibility 7 miles    
Events Snow    
Averages and records for this station are not official NWS values.
T = Trace of Precipitation, MM = Missing Value Source: NWS Daily Summary

Daily Weather History Graph

Daily Weather History Graph

Search for Another Location

Airport:

Trip Planner

Search our weather history database for the weather conditions in past years. The results will help you decide how hot, cold, wet, or windy it might be!

Date:

Astronomy

Jan. 19, 2014 Rise Set
Actual Time 7:56 AM EST 5:32 PM EST
Civil Twilight 7:26 AM EST 6:02 PM EST
Nautical Twilight 6:52 AM EST 6:37 PM EST
Astronomical Twilight 6:19 AM EST 7:10 PM EST
Moon 9:13 PM EST (1/19) 9:22 AM EST (1/19)
Length of Visible Light 10h 36m
Length of Day
9h 35m
Waning Gibbous, 89% of the Moon is Illuminated
Jan 19
Waning Gibbous
Jan 24
Last Quarter
Jan 30
New
Feb 6
First Quarter
Feb 14
Full

Hourly Weather History & Observations

Time (EST) Temp. Windchill Dew Point Humidity Pressure Visibility Wind Dir Wind Speed Gust Speed Precip Events Conditions
12:16 AM 17.6 °F - 15.8 °F 93% 29.77 in 4.0 mi Calm Calm - N/A Snow Light Snow
12:36 AM 15.8 °F - 15.8 °F 100% 29.77 in 5.0 mi Calm Calm - N/A Snow Light Snow
12:56 AM 15.8 °F - 14.0 °F 93% 29.76 in 4.0 mi Calm Calm - N/A Snow Light Snow
1:16 AM 17.6 °F - 15.8 °F 93% 29.76 in 4.0 mi Calm Calm - N/A Snow Light Snow
1:37 AM 17.6 °F - 15.8 °F 93% 29.77 in 5.0 mi Calm Calm - N/A Snow Light Snow
1:52 AM 17.6 °F - 15.8 °F 93% 29.76 in 4.0 mi Calm Calm - N/A Snow Light Snow
2:12 AM 17.6 °F - 15.8 °F 93% 29.76 in 3.0 mi Calm Calm - N/A Snow Light Snow
2:32 AM 17.6 °F - 17.6 °F 100% 29.76 in 2.5 mi Calm Calm - N/A Snow Light Snow
2:52 AM 17.6 °F - 17.6 °F 100% 29.76 in 3.0 mi Calm Calm - N/A Snow Light Snow
3:12 AM 17.6 °F - 17.6 °F 100% 29.75 in 4.0 mi Calm Calm - N/A Snow Light Snow
3:32 AM 17.6 °F - 15.8 °F 93% 29.75 in 3.0 mi Calm Calm - N/A Snow Light Snow
3:52 AM 17.6 °F - 15.8 °F 93% 29.74 in 4.0 mi Calm Calm - N/A Snow Light Snow
4:12 AM 15.8 °F - 14.0 °F 93% 29.74 in 5.0 mi Calm Calm - N/A Snow Light Snow
4:33 AM 15.8 °F - 14.0 °F 93% 29.74 in 5.0 mi Calm Calm - N/A Snow Light Snow
4:53 AM 15.8 °F - 14.0 °F 93% 29.75 in 5.0 mi Calm Calm - N/A Snow Light Snow
5:13 AM 15.8 °F - 14.0 °F 93% 29.75 in 7.0 mi Calm Calm - N/A Snow Light Snow
5:33 AM 12.2 °F - 12.2 °F 100% 29.75 in 5.0 mi Calm Calm - N/A   Scattered Clouds
5:53 AM 12.2 °F - 10.4 °F 92% 29.74 in 5.0 mi Calm Calm - N/A   Clear
6:13 AM 10.4 °F - 10.4 °F 100% 29.75 in 5.0 mi Calm Calm - N/A   Clear
6:33 AM 12.2 °F - 10.4 °F 92% 29.75 in 7.0 mi Calm Calm - N/A   Clear
6:53 AM 15.8 °F - 12.2 °F 86% 29.73 in 7.0 mi Calm Calm - N/A   Mostly Cloudy
7:13 AM 15.8 °F - 14.0 °F 93% 29.72 in 7.0 mi Calm Calm - N/A   Overcast
7:33 AM 17.6 °F 12.3 °F 15.8 °F 93% 29.72 in 7.0 mi SW 3.5 mph - N/A   Overcast
7:53 AM 17.6 °F 6.4 °F 15.8 °F 93% 29.72 in 10.0 mi SSW 9.2 mph - N/A   Overcast
8:13 AM 17.6 °F 5.7 °F 15.8 °F 93% 29.72 in 10.0 mi SW 10.4 mph - N/A   Overcast
8:34 AM 19.4 °F 6.6 °F 15.8 °F 86% 29.71 in 10.0 mi SW 12.7 mph - N/A   Overcast
8:54 AM 19.4 °F 7.2 °F 15.8 °F 86% 29.72 in 10.0 mi SW 11.5 mph - N/A   Overcast
9:14 AM 21.2 °F 7.8 °F 17.6 °F 86% 29.71 in 10.0 mi SW 15.0 mph 20.7 mph N/A   Overcast
9:34 AM 21.2 °F 6.0 °F 17.6 °F 86% 29.71 in 10.0 mi SW 19.6 mph 23.0 mph N/A   Overcast
9:54 AM 21.2 °F 4.5 °F 17.6 °F 86% 29.71 in 7.0 mi WSW 24.2 mph 28.8 mph N/A   Overcast
10:14 AM 21.2 °F 3.9 °F 17.6 °F 86% 29.71 in 4.0 mi WSW 26.5 mph 31.1 mph N/A   Overcast
10:34 AM 21.2 °F 5.2 °F 17.6 °F 86% 29.70 in 5.0 mi WSW 21.9 mph 27.6 mph N/A   Overcast
10:54 AM 21.2 °F 5.2 °F 17.6 °F 86% 29.69 in 4.0 mi SW 21.9 mph 31.1 mph N/A   Overcast
11:15 AM 23.0 °F 7.6 °F 17.6 °F 80% 29.68 in 4.0 mi SW 21.9 mph 32.2 mph N/A   Haze
11:35 AM 23.0 °F 6.3 °F 17.6 °F 80% 29.68 in 3.0 mi SW 26.5 mph 35.7 mph N/A   Haze
11:55 AM 23.0 °F 9.2 °F 17.6 °F 80% 29.65 in 4.0 mi SW 17.3 mph 28.8 mph N/A   Haze
12:15 PM 23.0 °F 6.9 °F 17.6 °F 80% 29.64 in 3.0 mi SW 24.2 mph 33.4 mph N/A   Haze
12:35 PM 24.8 °F 10.0 °F 17.6 °F 74% 29.63 in 4.0 mi SW 21.9 mph 33.4 mph N/A   Haze
12:55 PM 24.8 °F 7.6 °F 17.6 °F 74% 29.62 in 2.5 mi WSW 31.1 mph 38.0 mph N/A   Haze
1:15 PM 23.0 °F 6.9 °F 17.6 °F 80% 29.61 in 3.0 mi WSW 24.2 mph 36.8 mph N/A   Haze
1:35 PM 24.8 °F 9.6 °F 17.6 °F 74% 29.61 in 5.0 mi WSW 23.0 mph 33.4 mph N/A   Haze
1:55 PM 24.8 °F 7.6 °F 17.6 °F 74% 29.62 in 2.5 mi WSW 31.1 mph 40.3 mph N/A   Haze
2:15 PM 24.8 °F 8.1 °F 17.6 °F 74% 29.62 in 4.0 mi WSW 28.8 mph 33.4 mph N/A   Haze
2:35 PM 23.0 °F 6.0 °F 17.6 °F 80% 29.61 in 4.0 mi WSW 27.6 mph 38.0 mph N/A   Haze
2:55 PM 24.8 °F 10.3 °F 17.6 °F 74% 29.61 in 5.0 mi WSW 20.7 mph 34.5 mph N/A   Haze
3:16 PM 24.8 °F 9.3 °F 17.6 °F 74% 29.61 in 7.0 mi SW 24.2 mph 31.1 mph N/A   Overcast
3:36 PM 24.8 °F 8.4 °F 19.4 °F 80% 29.61 in 7.0 mi WSW 27.6 mph 33.4 mph N/A   Overcast
3:56 PM 24.8 °F 9.6 °F 19.4 °F 80% 29.61 in 7.0 mi SW 23.0 mph 29.9 mph N/A   Overcast
4:16 PM 26.6 °F 13.1 °F 19.4 °F 74% 29.61 in 10.0 mi SW 19.6 mph 26.5 mph N/A   Overcast
4:36 PM 26.6 °F 13.4 °F 19.4 °F 74% 29.62 in 10.0 mi SW 18.4 mph 25.3 mph N/A   Overcast
4:56 PM 26.6 °F 13.1 °F 19.4 °F 74% 29.61 in 10.0 mi SW 19.6 mph 25.3 mph N/A   Overcast
5:16 PM 26.6 °F 13.8 °F 19.4 °F 74% 29.61 in 10.0 mi SW 17.3 mph 28.8 mph N/A   Overcast
5:37 PM 26.6 °F 12.7 °F 19.4 °F 74% 29.61 in 10.0 mi SW 20.7 mph 26.5 mph N/A   Scattered Clouds
5:57 PM 26.6 °F 14.7 °F 19.4 °F 74% 29.61 in 10.0 mi WSW 15.0 mph 26.5 mph N/A   Clear
6:12 PM 26.6 °F 13.8 °F 19.4 °F 74% 29.61 in 10.0 mi SW 17.3 mph 24.2 mph N/A   Clear
6:32 PM 26.6 °F 14.3 °F 21.2 °F 80% 29.61 in 10.0 mi SW 16.1 mph 24.2 mph N/A   Clear
6:52 PM 26.6 °F 14.7 °F 21.2 °F 80% 29.60 in 10.0 mi SW 15.0 mph 23.0 mph N/A   Clear
7:12 PM 26.6 °F 15.2 °F 21.2 °F 80% 29.60 in 10.0 mi SW 13.8 mph 25.3 mph N/A   Clear
7:32 PM 28.4 °F 17.5 °F 21.2 °F 74% 29.60 in 10.0 mi SW 13.8 mph - N/A   Clear
7:52 PM 28.4 °F 16.6 °F 21.2 °F 74% 29.60 in 10.0 mi SW 16.1 mph 20.7 mph N/A   Clear
8:12 PM 28.4 °F 17.0 °F 21.2 °F 74% 29.61 in 10.0 mi SW 15.0 mph 20.7 mph N/A   Clear
8:32 PM 28.4 °F 16.6 °F 21.2 °F 74% 29.61 in 10.0 mi WSW 16.1 mph 21.9 mph N/A   Clear
8:52 PM 28.4 °F 18.0 °F 21.2 °F 74% 29.60 in 10.0 mi SW 12.7 mph 21.9 mph N/A   Scattered Clouds
9:13 PM 26.6 °F 16.2 °F 21.2 °F 80% 29.59 in 10.0 mi SW 11.5 mph 17.3 mph N/A   Clear
9:33 PM 28.4 °F 20.4 °F 21.2 °F 74% 29.59 in 10.0 mi SW 8.1 mph 17.3 mph N/A   Clear
9:53 PM 28.4 °F 17.0 °F 21.2 °F 74% 29.58 in 10.0 mi SW 15.0 mph 20.7 mph N/A   Clear
10:13 PM 28.4 °F 21.2 °F 21.2 °F 74% 29.58 in 10.0 mi SW 6.9 mph 18.4 mph N/A   Clear
10:33 PM 28.4 °F 17.5 °F 21.2 °F 74% 29.56 in 10.0 mi SW 13.8 mph - N/A   Clear
10:53 PM 28.4 °F 19.1 °F 21.2 °F 74% 29.55 in 10.0 mi SW 10.4 mph 17.3 mph N/A   Clear
11:13 PM 28.4 °F 23.3 °F 21.2 °F 74% 29.54 in 10.0 mi SW 4.6 mph 18.4 mph N/A   Scattered Clouds
11:33 PM 28.4 °F 17.5 °F 21.2 °F 74% 29.53 in 10.0 mi SW 13.8 mph 19.6 mph N/A   Scattered Clouds
11:53 PM 30.2 °F 18.9 °F 23.0 °F 75% 29.53 in 10.0 mi SW 16.1 mph 20.7 mph N/A   Mostly Cloudy